| time (UTC) | temp F | wind direction | speed MPH | gust MPH | rain 1hr in | rain 24hr in | rain mn in | humidity % | barometer mb |
| 20260503053044 | 53 | 0 | 0.0 | 0.0 | 0.00 | 0.00 | 0.00 | 94 | 1013.6 |
| 20260503050045 | 51 | 0 | 0.0 | 0.0 | 0.00 | 0.00 | 0.00 | 97 | 1013.9 |
| 20260503045043 | 51 | 0 | 0.0 | 0.0 | 0.00 | 0.00 | 0.00 | 97 | 1013.9 |
| 20260503044044 | 51 | 0 | 0.0 | 0.0 | 0.00 | 0.00 | 0.00 | 96 | 1014.0 |
| 20260503043043 | 52 | 0 | 0.0 | 0.0 | 0.00 | 0.00 | 0.00 | 96 | 1014.0 |
| 20260503042042 | 52 | 0 | 0.0 | 0.0 | 0.00 | 0.00 | 0.00 | 96 | 1013.9 |
| 20260503041045 | 52 | 0 | 0.0 | 0.0 | 0.00 | 0.00 | 0.00 | 96 | 1013.8 |
| 20260503035043 | 52 | 0 | 0.0 | 0.0 | 0.00 | 0.00 | 0.00 | 95 | 1014.0 |
| 20260503033043 | 53 | 0 | 0.0 | 0.0 | 0.00 | 0.00 | 0.00 | 96 | 1014.2 |
| 20260503030044 | 53 | 0 | 0.0 | 0.0 | 0.00 | 0.02 | 0.00 | 95 | 1014.2 |
| 20260503024043 | 53 | 0 | 0.0 | 0.0 | 0.00 | 0.02 | 0.00 | 95 | 1014.2 |
| 20260503023044 | 53 | 0 | 0.0 | 0.0 | 0.00 | 0.02 | 0.00 | 94 | 1014.3 |
| 20260503022045 | 54 | 0 | 0.0 | 0.0 | 0.00 | 0.02 | 0.00 | 93 | 1014.4 |
| 20260503021044 | 54 | 0 | 0.0 | 0.0 | 0.00 | 0.02 | 0.00 | 94 | 1014.4 |
| 20260503020043 | 54 | 0 | 0.0 | 0.0 | 0.00 | 0.02 | 0.00 | 94 | 1014.4 |
| 20260503014042 | 53 | 0 | 0.0 | 0.0 | 0.00 | 0.02 | 0.00 | 95 | 1014.6 |
| 20260503013045 | 53 | 0 | 0.0 | 0.0 | 0.00 | 0.02 | 0.00 | 96 | 1014.6 |
| 20260503012045 | 53 | 0 | 0.0 | 0.0 | 0.00 | 0.02 | 0.00 | 96 | 1014.8 |
| 20260503011043 | 53 | 0 | 0.0 | 0.0 | 0.00 | 0.02 | 0.00 | 95 | 1014.9 |
| 20260503010045 | 53 | 0 | 0.0 | 0.0 | 0.00 | 0.02 | 0.00 | 95 | 1014.9 |
| 20260503005044 | 53 | 0 | 0.0 | 0.0 | 0.00 | 0.02 | 0.00 | 95 | 1015.1 |
| 20260503004044 | 53 | 0 | 0.0 | 0.0 | 0.00 | 0.02 | 0.00 | 95 | 1015.2 |
| 20260503003044 | 54 | 0 | 0.0 | 0.0 | 0.00 | 0.02 | 0.00 | 94 | 1015.3 |
| 20260503002044 | 54 | 0 | 0.0 | 0.0 | 0.00 | 0.02 | 0.00 | 94 | 1015.3 |
| 20260503001043 | 54 | 0 | 0.0 | 0.0 | 0.00 | 0.02 | 0.00 | 93 | 1015.3 |
| 20260503000050 | 55 | 0 | 0.0 | 0.0 | 0.00 | 0.02 | 0.00 | 93 | 1015.4 |
| 20260502235048 | 55 | 0 | 0.0 | 0.0 | 0.00 | 0.02 | 0.00 | 92 | 1015.4 |
| 20260502233047 | 56 | 0 | 0.0 | 0.0 | 0.00 | 0.02 | 0.00 | 90 | 1015.4 |
| 20260502232049 | 57 | 0 | 0.0 | 0.0 | 0.00 | 0.02 | 0.00 | 89 | 1015.4 |
| 20260502231045 | 57 | 0 | 0.0 | 0.0 | 0.00 | 0.02 | 0.00 | 88 | 1015.4 |
| 20260502230046 | 58 | 0 | 0.0 | 0.0 | 0.00 | 0.02 | 0.00 | 87 | 1015.3 |
| 20260502225046 | 59 | 0 | 0.0 | 0.0 | 0.00 | 0.02 | 0.00 | 85 | 1015.3 |
| 20260502224048 | 60 | 0 | 0.0 | 0.0 | 0.00 | 0.02 | 0.00 | 83 | 1015.3 |
| 20260502223046 | 61 | 0 | 0.0 | 0.0 | 0.00 | 0.02 | 0.00 | 80 | 1015.1 |
| 20260502222047 | 61 | 0 | 0.0 | 0.0 | 0.00 | 0.02 | 0.00 | 80 | 1015.1 |
| 20260502221047 | 61 | 0 | 0.0 | 0.0 | 0.00 | 0.02 | 0.00 | 80 | 1015.2 |
| 20260502220046 | 61 | 0 | 0.0 | 0.0 | 0.00 | 0.02 | 0.00 | 80 | 1015.2 |
| 20260502215048 | 61 | 0 | 0.0 | 0.0 | 0.00 | 0.02 | 0.02 | 80 | 1015.3 |
| 20260502214048 | 61 | 0 | 0.0 | 0.0 | 0.00 | 0.02 | 0.02 | 81 | 1015.3 |
| 20260502213051 | 60 | 0 | 0.0 | 0.0 | 0.00 | 0.02 | 0.02 | 81 | 1015.4 |
| 20260502211048 | 60 | 0 | 0.0 | 0.0 | 0.00 | 0.02 | 0.02 | 82 | 1015.5 |
| 20260502210047 | 60 | 0 | 0.0 | 0.0 | 0.00 | 0.02 | 0.02 | 82 | 1015.5 |
| 20260502205048 | 60 | 0 | 0.0 | 0.0 | 0.00 | 0.02 | 0.02 | 81 | 1015.5 |
| 20260502204049 | 60 | 0 | 0.0 | 0.0 | 0.00 | 0.02 | 0.02 | 82 | 1015.6 |
| 20260502203052 | 61 | 0 | 0.0 | 0.0 | 0.00 | 0.02 | 0.02 | 80 | 1015.6 |
| 20260502202052 | 62 | 0 | 0.0 | 0.0 | 0.00 | 0.02 | 0.02 | 79 | 1015.6 |
| 20260502201055 | 62 | 0 | 0.0 | 0.0 | 0.00 | 0.02 | 0.02 | 80 | 1015.6 |
| 20260502200051 | 62 | 0 | 0.0 | 0.0 | 0.00 | 0.02 | 0.02 | 79 | 1015.6 |
| 20260502194047 | 64 | 0 | 0.0 | 0.0 | 0.00 | 0.02 | 0.02 | 75 | 1015.5 |
| 20260502193049 | 64 | 0 | 0.0 | 0.0 | 0.00 | 0.02 | 0.02 | 73 | 1015.4 |
| 20260502192050 | 65 | 0 | 0.0 | 0.0 | 0.00 | 0.02 | 0.02 | 73 | 1015.3 |
| 20260502191050 | 65 | 0 | 0.0 | 0.0 | 0.00 | 0.02 | 0.02 | 72 | 1015.3 |
| 20260502190050 | 65 | 0 | 0.0 | 0.0 | 0.00 | 0.02 | 0.02 | 73 | 1015.3 |
| 20260502184049 | 65 | 0 | 0.0 | 0.0 | 0.00 | 0.02 | 0.02 | 77 | 1015.3 |
| 20260502183050 | 66 | 0 | 0.0 | 0.0 | 0.00 | 0.02 | 0.02 | 78 | 1015.1 |
| 20260502181046 | 68 | 0 | 0.0 | 0.0 | 0.00 | 0.02 | 0.02 | 70 | 1015.1 |
| 20260502164045 | 72 | 0 | 0.0 | 0.0 | 0.00 | 0.02 | 0.02 | 52 | 1015.3 |
| 20260502163047 | 72 | 0 | 0.0 | 0.0 | 0.00 | 0.02 | 0.02 | 52 | 1015.4 |
| 20260502162045 | 73 | 0 | 0.0 | 0.0 | 0.00 | 0.02 | 0.02 | 53 | 1015.5 |
| 20260502161049 | 73 | 0 | 0.0 | 0.0 | 0.00 | 0.02 | 0.02 | 52 | 1015.6 |
| 20260502152045 | 75 | 0 | 0.0 | 0.0 | 0.00 | 0.02 | 0.02 | 47 | 1015.8 |
| 20260502151048 | 76 | 0 | 0.0 | 0.0 | 0.00 | 0.02 | 0.02 | 47 | 1016.0 |
| 20260502122045 | 71 | 0 | 0.0 | 0.0 | 0.00 | 0.02 | 0.02 | 55 | 1018.7 |
| 20260502115043 | 71 | 0 | 0.0 | 0.0 | 0.00 | 0.02 | 0.02 | 57 | 1019.1 |
| 20260502114045 | 71 | 0 | 0.0 | 0.0 | 0.00 | 0.02 | 0.02 | 58 | 1019.3 |
| 20260502112044 | 71 | 0 | 0.0 | 0.0 | 0.00 | 0.02 | 0.02 | 58 | 1019.5 |
| 20260502111044 | 71 | 0 | 0.0 | 0.0 | 0.00 | 0.02 | 0.02 | 59 | 1019.7 |
| 20260502110042 | 71 | 0 | 0.0 | 0.0 | 0.00 | 0.02 | 0.02 | 59 | 1019.8 |
| 20260502104044 | 69 | 0 | 0.0 | 0.0 | 0.00 | 0.02 | 0.02 | 62 | 1020.0 |
| 20260502103044 | 70 | 0 | 0.0 | 0.0 | 0.00 | 0.02 | 0.02 | 61 | 1020.0 |
| 20260502102046 | 70 | 0 | 0.0 | 0.0 | 0.00 | 0.02 | 0.02 | 61 | 1020.0 |
| 20260502101049 | 70 | 0 | 0.0 | 0.0 | 0.00 | 0.02 | 0.02 | 61 | 1020.1 |
| 20260502071046 | 57 | 0 | 0.0 | 0.0 | 0.00 | 0.02 | 0.02 | 85 | 1021.7 |
| 20260502070041 | 54 | 0 | 0.0 | 0.0 | 0.00 | 0.02 | 0.02 | 91 | 1021.8 |
| 20260502065045 | 53 | 0 | 0.0 | 0.0 | 0.00 | 0.02 | 0.02 | 90 | 1022.0 |
| 20260502064042 | 52 | 0 | 0.0 | 0.0 | 0.00 | 0.02 | 0.02 | 95 | 1022.0 |
| 20260502063044 | 51 | 0 | 0.0 | 0.0 | 0.00 | 0.02 | 0.02 | 96 | 1022.1 |
| 20260502062043 | 50 | 0 | 0.0 | 0.0 | 0.00 | 0.02 | 0.02 | 98 | 1022.1 |
| 20260502061044 | 50 | 0 | 0.0 | 0.0 | 0.00 | 0.02 | 0.02 | 98 | 1022.1 |
| 20260502060045 | 49 | 0 | 0.0 | 0.0 | 0.00 | 0.02 | 0.02 | 98 | 1022.2 |
| 20260502055042 | 49 | 0 | 0.0 | 0.0 | 0.00 | 0.02 | 0.02 | 98 | 1022.2 |
| 20260502054044 | 48 | 0 | 0.0 | 0.0 | 0.00 | 0.02 | 0.02 | 97 | 1022.2 |